This is the latest recevied weather packets stored in our database for station/object KG4K-13. If no packets are shown the sender has not sent any weather packets the latest 10 day(s).
| Time | Temp. | Humidity | Pressure | Rain* | Wind** | Luminosity | Snow |
|---|---|---|---|---|---|---|---|
| 1778256336 | 18.33° C | 41% | 1015.1 hPa | 0 mm | - | 923 W/m² | - |
| 1778255717 | 18.33° C | 48% | 1015.2 hPa | 0 mm | - | 906 W/m² | - |
| 1778253917 | 17.78° C | 52% | 1015.6 hPa | 0 mm | - | 853 W/m² | - |
| 1778249718 | 16.67° C | 55% | 1016 hPa | 0 mm | - | 682 W/m² | - |
| 1778242546 | 11.67° C | 65% | 1016.1 hPa | 0 mm | - | 47 W/m² | - |
| 1778241926 | 11.11° C | 67% | 1016.1 hPa | 0 mm | - | 44 W/m² | - |
| 1778235928 | 7.78° C | 84% | 1015 hPa | 0 mm | - | 11 W/m² | - |
| 1778235328 | 8.33° C | 83% | 1014.8 hPa | 0 mm | - | 7 W/m² | - |
| 1778232349 | 9.44° C | 76% | 1014.5 hPa | 0 mm | - | 0 W/m² | - |
| 1778231749 | 9.44° C | 75% | 1014.4 hPa | 0 mm | - | 0 W/m² | - |
| 1778228730 | 10.56° C | 72% | 1013.9 hPa | 0 mm | - | 0 W/m² | - |
| 1778223916 | 11.67° C | 76% | 1012.7 hPa | 0 mm | - | 0 W/m² | - |
| 1778220317 | 11.67° C | 86% | 1012.3 hPa | 0 mm | - | 0 W/m² | - |
| 1778217916 | 11.67° C | 85% | 1012.2 hPa | 0 mm | - | 0 W/m² | - |
| 1778217316 | 11.67° C | 84% | 1012.2 hPa | 0 mm | - | 0 W/m² | - |
| 1778216736 | 11.67° C | 84% | 1012.1 hPa | 0 mm | - | 0 W/m² | - |
| 1778215515 | 11.67° C | 82% | 1011.9 hPa | 0 mm | - | 0 W/m² | - |
| 1778209517 | 11.67° C | 80% | 1011.6 hPa | 0 mm | - | 0 W/m² | - |
| 1778203536 | 12.22° C | 72% | 1011.3 hPa | 0 mm | - | 0 W/m² | - |
| 1778201116 | 12.78° C | 68% | 1010.6 hPa | 0 mm | - | 0 W/m² | - |
| 1778195718 | 16.11° C | 57% | 1009.8 hPa | 0 mm | - | 49 W/m² | - |
| 1778192116 | 17.22° C | 53% | 1009.5 hPa | 0 mm | - | 255 W/m² | - |
| 1778189736 | 16.67° C | 52% | 1009.7 hPa | 0 mm | - | 379 W/m² | - |
| 1778187917 | 16.67° C | 55% | 1009.8 hPa | 0 mm | - | 145 W/m² | - |
| 1778183718 | 17.78° C | 53% | 1009.7 hPa | 0 mm | - | 751 W/m² | - |
* Rain latest hour (hover to see other rain measurements)
** Current wind speed in m/s (hover to see current wind gust speed)